Weather in Achairsky

Russia / Omsk Oblast     54°36′14″N   74°00′00″E
temp.,
°C
wind,
m/s
gust,
m/s
humid.,
%
clouds,
%
prec.,
mm/h
press.,
hPa
HPBL,
m
4 march, thu
thu400:00−6ssw71492100 0.3 1012648
03:00−4sw81494100 0.5 1010788
06:00−3ssw71493100 0.9 1009741
09:00−2ssw71492100 0.2 1008748
12:00−1ssw91493100 0.4 1007942
15:00−1ssw101590100 0.2 1006929
18:00−1ssw91691100 0.5 1005914
21:00−2ssw81785100 0.0 1004669
5 march, fri
fri500:00−2ssw81688100 0.0 1003570
03:00−2sw71394100 0.1 1003705
06:00−5w81386100 0.3 1006706
09:00−10wsw7139032 0.0 1010321
12:00−7sw8158266 0.0 1011561
15:00−5sw101691100 0.3 10101037
18:00−5sw91591100 0.8 1011906
21:00−4sw81784100 0.1 1011792
6 march, sat
sat600:00−3sw91693100 0.4 1011850
03:00−3sw91692100 0.5 1010831
06:00−4sw81594100 0.9 1010801
09:00−3sw81592100 0.3 1009699
12:00−2sw81391100 0.5 1009743
15:00−1sw91489100 0.1 1007904
18:00−1sw81588100 0.2 1009860
21:00−4w51191100 0.3 1011478
7 march, sun
sun700:00−10wnw3687100 0.3 101398
03:00−13wsw128493 0.0 101321
06:00−11se238596 0.0 101342
09:00−7se51095100 0.6 1009333
12:00−1ssw91496100 1.3 1007875
15:000sw91499100 0.5 1005885
18:00+1sw71494100 0.6 1005808
21:000sw71396100 0.1 1006754
8 march, mon
mon800:000sw81593100 0.3 1007768
03:00−7nw3794100 0.3 1009258
06:00−10nnw3695100 0.3 1012181
09:00−11n3494100 0.0 1014137
12:00−9ne3491100 0.0 1016251
15:00−8ene3488100 0.0 1016294
18:00−10ene349298 0.0 101697
21:00−11e339391 0.0 101765